Location: *
(40.4000°N, 15.1200°E)
Time: 07:23:27
(UTC+00:00)

Cosmos 2082 Rocket - Pass Details

Date: 09 April 2020
Orbit: 831 x 855 km, 71.0° (Epoch: 24 May)

Event Time Altitude Azimuth Distance (km) Brightness Sun altitude
Exits shadow 20:34:28 17° 38° (NE) 2,015 4.2 -31.0°
Drops below altitude 10° 20:35:43 10° 34° (NE) 2,463 4.7 -31.2°
Sets 20:38:14 0° 29° (NNE) 3,406 5.6 -31.5°
